This is the latest recevied weather packets stored in our database for station/object N4TLC. If no packets are shown the sender has not sent any weather packets the latest 10 day(s).
| Time | Temp. | Humidity | Pressure | Rain* | Wind** | Luminosity | Snow |
|---|---|---|---|---|---|---|---|
| 1777824446 | 12.78° C | 34% | 1021.9 hPa | 0 mm | - | 967 W/m² | - |
| 1777824142 | 12.78° C | 35% | 1021.9 hPa | 0 mm | - | 898 W/m² | - |
| 1777823839 | 12.78° C | 35% | 1021.8 hPa | 0 mm | - | 925 W/m² | - |
| 1777823537 | 12.78° C | 36% | 1022.3 hPa | 0 mm | - | 843 W/m² | - |
| 1777823233 | 12.78° C | 36% | 1022.2 hPa | 0 mm | - | 621 W/m² | - |
| 1777822931 | 12.78° C | 37% | 1022.2 hPa | 0 mm | - | 327 W/m² | - |
| 1777822629 | 12.78° C | 37% | 1022.3 hPa | 0 mm | - | 367 W/m² | - |
| 1777822326 | 12.22° C | 40% | 1022.3 hPa | 0 mm | - | 293 W/m² | - |
| 1777822024 | 12.22° C | 39% | 1022.2 hPa | 0 mm | - | 101 W/m² | - |
| 1777821722 | 12.22° C | 37% | 1022.2 hPa | 0 mm | - | 463 W/m² | - |
| 1777821419 | 12.22° C | 39% | 1022 hPa | 0 mm | - | 60 W/m² | - |
| 1777821115 | 12.22° C | 41% | 1022.2 hPa | 0 mm | - | 60 W/m² | - |
| 1777820812 | 11.67° C | 41% | 1022 hPa | 0 mm | - | 84 W/m² | - |
| 1777820508 | 11.67° C | 41% | 1022 hPa | 0 mm | - | 57 W/m² | - |
| 1777820206 | 11.67° C | 41% | 1022 hPa | 0 mm | - | 57 W/m² | - |
| 1777819903 | 11.11° C | 42% | 1022 hPa | 0 mm | - | 57 W/m² | - |
| 1777819600 | 11.11° C | 43% | 1022.2 hPa | 0 mm | - | 56 W/m² | - |
| 1777819298 | 11.11° C | 42% | 1022.4 hPa | 0 mm | - | 55 W/m² | - |
| 1777818994 | 11.11° C | 41% | 1022.3 hPa | 0 mm | - | 55 W/m² | - |
| 1777818691 | 11.11° C | 42% | 1022.2 hPa | 0 mm | - | 54 W/m² | - |
| 1777818388 | 10.56° C | 43% | 1022 hPa | 0 mm | - | 55 W/m² | - |
| 1777818085 | 10.56° C | 43% | 1022.2 hPa | 0 mm | - | 53 W/m² | - |
| 1777817781 | 11.11° C | 42% | 1022.2 hPa | 0 mm | - | 53 W/m² | - |
| 1777817479 | 10.56° C | 43% | 1022 hPa | 0 mm | - | 51 W/m² | - |
| 1777817175 | 10.56° C | 46% | 1022 hPa | 0 mm | - | 52 W/m² | - |
* Rain latest hour (hover to see other rain measurements)
** Current wind speed in m/s (hover to see current wind gust speed)